Regional Weather Roundup
Issued by NWS Albany, NY

Home | Current Version | Previous Version | Text Only | Print | Product List | Glossary Off
Versions: 1 2 3 4 5 6 7 8 9 10 11 12 13 14 15 16 17 18 19 20 21 22 23 24 25 26 27 28 29 30 31 32 33 34 35 36 37 38 39 40 41 42 43 44 45 46 47 48 49 50

000
ASUS41 KALY 120410
RWRALY

NEW YORK STATE HOURLY WEATHER ROUNDUP
NATIONAL WEATHER SERVICE ALBANY NY
1100 PM EST THU FEB 11 2016

NOTE: "FAIR" INDICATES FEW OR NO CLOUDS BELOW 12,000 FEET WITH NO
SIGNIFICANT WEATHER AND/OR NO OBSTRUCTIONS TO VISIBILITY.

NYZ032-033-038>043-046>054-057>066-NYZ062>081-120500-
EAST


CITY           SKY/WX    TMP DP  RH WIND       PRES   REMARKS
ALBANY         PTCLDY     8  -4  58 W8        30.15R WCI  -4
GLENS FALLS    MOCLDY     5  -9  52 CALM      30.12R
POUGHKEEPSIE   PTCLDY    17  -2  43 W12       30.13S WCI   4
NEWBURGH       CLEAR     14   3  62 NW12G25   30.13R WCI   0
MONTGOMERY     CLEAR     14   0  53 W9        30.14R WCI   2
WHITE PLAINS   CLEAR     16  -1  47 NW23G36   30.11R WCI  -2
ISLIP          PTCLDY    18  -1  43 W21G28    30.14R WCI   1
NEW YORK CITY  PTCLDY    21   0  39 W20G26    30.18R WCI   6
CENTRAL PARK   CLEAR     19  -3  38 NW9G22    30.19R WCI   8
$$

NYZ005>009-017-018-044>046-055-056-120500-
CENTRAL


CITY           SKY/WX    TMP DP  RH WIND       PRES   REMARKS
FULTON         LGT SNOW  16   4  59 NW15G25   30.16R WCI   1
SYRACUSE       LGT SNOW  11   8  88 W9        30.16S FOG     WCI  -2
ROME           CLOUDY     4   0  83 NE3       30.17R
ELMIRA         CLEAR     11  -1  58 W5        30.17R WCI   3
BINGHAMTON     PTCLDY     6  -2  69 W10       30.06R WCI  -9
MONTICELLO     CLOUDY     9   1  72 W16G23    30.06R WCI  -9
$$

NYZ026>034-041>043-120500-
NORTH


CITY           SKY/WX    TMP DP  RH WIND       PRES   REMARKS
WATERTOWN      CLEAR     -1  -9  68 NW6       30.17R WCI -13
FORT DRUM      NOT AVBL
MASSENA        CLEAR     -6 -11  79 SW7       30.16R WCI -20
SARANAC LAKE   PTCLDY   -10 -14  82 SW7       29.96R WCI -25
PLATTSBURGH    CLEAR      1 -11  57 CALM      30.12R
$$

NYZ001>004-010>016-019>021-120500-
WEST


CITY           SKY/WX    TMP DP  RH WIND       PRES   REMARKS
NIAGARA FALLS  PTCLDY    12   2  64 SW10      30.21S WCI  -1
BUFFALO        PTCLDY    11   1  64 W9        30.21S WCI  -2
DUNKIRK        CLOUDY    16   4  59 NW15G22   30.23S WCI   1
JAMESTOWN      CLOUDY    10   5  79 W3        30.12S
WELLSVILLE     MOCLDY     7   2  80 NW14G20   30.08S WCI -10
ROCHESTER      MOCLDY    12   2  64 W9        30.20R WCI   0
PENN YAN       CLEAR     11   0  61 W13G20    30.16R WCI  -4
$$

             KEY
       WCI = WIND CHILL INDEX
       VSB = VISIBILITY
       HX  = HEAT INDEX
$$



USA.gov is the U.S. government's official web portal to all federal, state and local government web resources and services.